Year,Month,Day,Hour,Minute,Value (Times are PST for temperature in C)
2015,06,22,00,00,15.70
2015,06,22,00,01,15.70
2015,06,22,00,02,15.70
2015,06,22,00,03,15.60
2015,06,22,00,04,15.60
2015,06,22,00,05,15.60
2015,06,22,00,06,15.60
2015,06,22,00,07,15.50
2015,06,22,00,08,15.50
2015,06,22,00,09,15.50
2015,06,22,00,10,15.40
2015,06,22,00,11,15.40
2015,06,22,00,12,15.40
2015,06,22,00,13,15.30
2015,06,22,00,14,15.30
2015,06,22,00,15,15.30
2015,06,22,00,16,15.30
2015,06,22,00,17,15.20
2015,06,22,00,18,15.20
2015,06,22,00,19,15.20
2015,06,22,00,20,15.20
2015,06,22,00,21,15.20
2015,06,22,00,22,15.10
2015,06,22,00,23,15.10
2015,06,22,00,24,15.10
2015,06,22,00,25,15.10
2015,06,22,00,26,15.10
2015,06,22,00,27,15.00
2015,06,22,00,28,15.00
2015,06,22,00,29,15.00
2015,06,22,00,30,15.00
2015,06,22,00,31,15.00
2015,06,22,00,32,15.00
2015,06,22,00,33,15.00
2015,06,22,00,34,15.00
2015,06,22,00,35,15.00
2015,06,22,00,36,15.00
2015,06,22,00,37,15.00
2015,06,22,00,38,15.00
2015,06,22,00,39,14.90
2015,06,22,00,40,14.90
2015,06,22,00,41,14.80
2015,06,22,00,42,14.80
2015,06,22,00,43,14.80
2015,06,22,00,44,14.80
2015,06,22,00,45,14.70
2015,06,22,00,46,14.70
2015,06,22,00,47,14.70
2015,06,22,00,48,14.70
2015,06,22,00,49,14.70
2015,06,22,00,50,14.60
2015,06,22,00,51,14.60
2015,06,22,00,52,14.60
2015,06,22,00,53,14.50
2015,06,22,00,54,14.40
2015,06,22,00,55,14.40
2015,06,22,00,56,14.30
2015,06,22,00,57,14.30
2015,06,22,00,58,14.30
2015,06,22,00,59,14.20
2015,06,22,01,00,14.20
2015,06,22,01,01,14.20
2015,06,22,01,02,14.20
2015,06,22,01,03,14.20
2015,06,22,01,04,14.10
2015,06,22,01,05,14.10
2015,06,22,01,06,14.10
2015,06,22,01,07,14.10
2015,06,22,01,08,14.10
2015,06,22,01,09,14.10
2015,06,22,01,10,14.10
2015,06,22,01,11,14.10
2015,06,22,01,12,14.10
2015,06,22,01,13,14.10
2015,06,22,01,14,14.00
2015,06,22,01,15,14.00
2015,06,22,01,16,14.00
2015,06,22,01,17,14.00
2015,06,22,01,18,14.00
2015,06,22,01,19,14.00
2015,06,22,01,20,14.00
2015,06,22,01,21,14.00
2015,06,22,01,22,14.00
2015,06,22,01,23,14.00
2015,06,22,01,24,13.90
2015,06,22,01,25,13.90
2015,06,22,01,26,13.90
2015,06,22,01,27,13.90
2015,06,22,01,28,13.90
2015,06,22,01,29,13.90
2015,06,22,01,30,13.90
2015,06,22,01,31,13.90
2015,06,22,01,32,13.90
2015,06,22,01,33,13.90
2015,06,22,01,34,14.00
2015,06,22,01,35,14.00
2015,06,22,01,36,14.00
2015,06,22,01,37,13.90
2015,06,22,01,38,13.90
2015,06,22,01,39,13.90
2015,06,22,01,40,13.90
2015,06,22,01,41,13.90
2015,06,22,01,42,13.90
2015,06,22,01,43,13.90
2015,06,22,01,44,13.80
2015,06,22,01,45,13.80
2015,06,22,01,46,13.80
2015,06,22,01,47,13.90
2015,06,22,01,48,13.90
2015,06,22,01,49,13.90
2015,06,22,01,50,14.00
2015,06,22,01,51,14.00
2015,06,22,01,52,14.00
2015,06,22,01,53,14.00
2015,06,22,01,54,14.00
2015,06,22,01,55,14.00
2015,06,22,01,56,14.00
2015,06,22,01,57,14.00
2015,06,22,01,58,14.00
2015,06,22,01,59,14.00
2015,06,22,02,00,14.00
2015,06,22,02,01,14.00
2015,06,22,02,02,13.90
2015,06,22,02,03,13.90
2015,06,22,02,04,13.90
2015,06,22,02,05,13.90
2015,06,22,02,06,13.90
2015,06,22,02,07,13.90
2015,06,22,02,08,13.80
2015,06,22,02,09,13.80
2015,06,22,02,10,13.80
2015,06,22,02,11,13.80
2015,06,22,02,12,13.80
2015,06,22,02,13,13.80
2015,06,22,02,14,13.90
2015,06,22,02,15,13.90
2015,06,22,02,16,13.80
2015,06,22,02,17,13.80
2015,06,22,02,18,13.80
2015,06,22,02,19,13.80
2015,06,22,02,20,13.80
2015,06,22,02,21,13.80
2015,06,22,02,22,13.80
2015,06,22,02,23,13.80
2015,06,22,02,24,13.80
2015,06,22,02,25,13.80
2015,06,22,02,26,13.70
2015,06,22,02,27,13.70
2015,06,22,02,28,13.70
2015,06,22,02,29,13.70
2015,06,22,02,30,13.70
2015,06,22,02,31,13.60
2015,06,22,02,32,13.60
2015,06,22,02,33,13.60
2015,06,22,02,34,13.60
2015,06,22,02,35,13.50
2015,06,22,02,36,13.50
2015,06,22,02,37,13.50
2015,06,22,02,38,13.40
2015,06,22,02,39,13.40
2015,06,22,02,40,13.30
2015,06,22,02,41,13.30
2015,06,22,02,42,13.30
2015,06,22,02,43,13.20
2015,06,22,02,44,13.20
2015,06,22,02,45,13.20
2015,06,22,02,46,13.10
2015,06,22,02,47,13.10
2015,06,22,02,48,13.10
2015,06,22,02,49,13.10
2015,06,22,02,50,13.00
2015,06,22,02,51,13.00
2015,06,22,02,52,13.00
2015,06,22,02,53,12.90
2015,06,22,02,54,12.90
2015,06,22,02,55,12.90
2015,06,22,02,56,12.90
2015,06,22,02,57,12.90
2015,06,22,02,58,12.90
2015,06,22,02,59,12.90
2015,06,22,03,00,12.90
2015,06,22,03,01,12.90
2015,06,22,03,02,12.90
2015,06,22,03,03,12.90
2015,06,22,03,04,12.90
2015,06,22,03,05,12.90
2015,06,22,03,06,12.90
2015,06,22,03,07,12.90
2015,06,22,03,08,12.80
2015,06,22,03,09,12.80
2015,06,22,03,10,12.80
2015,06,22,03,11,12.80
2015,06,22,03,12,12.80
2015,06,22,03,13,12.80
2015,06,22,03,14,12.80
2015,06,22,03,15,12.80
2015,06,22,03,16,12.70
2015,06,22,03,17,12.80
2015,06,22,03,18,12.80
2015,06,22,03,19,12.80
2015,06,22,03,20,12.80
2015,06,22,03,21,12.80
2015,06,22,03,22,12.80
2015,06,22,03,23,12.80
2015,06,22,03,24,12.90
2015,06,22,03,25,12.90
2015,06,22,03,26,12.90
2015,06,22,03,27,12.90
2015,06,22,03,28,12.90
2015,06,22,03,29,12.90
2015,06,22,03,30,12.90
2015,06,22,03,31,12.90
2015,06,22,03,32,12.90
2015,06,22,03,33,12.90
2015,06,22,03,34,12.90
2015,06,22,03,35,12.90
2015,06,22,03,36,12.90
2015,06,22,03,37,12.90
2015,06,22,03,38,12.80
2015,06,22,03,39,12.80
2015,06,22,03,40,12.80
2015,06,22,03,41,12.80
2015,06,22,03,42,12.90
2015,06,22,03,43,12.90
2015,06,22,03,44,12.80
2015,06,22,03,45,12.80
2015,06,22,03,46,12.80
2015,06,22,03,47,12.80
2015,06,22,03,48,12.80
2015,06,22,03,49,12.80
2015,06,22,03,50,12.80
2015,06,22,03,51,12.80
2015,06,22,03,52,12.80
2015,06,22,03,53,12.80
2015,06,22,03,54,12.80
2015,06,22,03,55,12.80
2015,06,22,03,56,12.80
2015,06,22,03,57,12.80
2015,06,22,03,58,12.80
2015,06,22,03,59,12.80
2015,06,22,04,00,12.70
2015,06,22,04,01,12.70
2015,06,22,04,02,12.70
2015,06,22,04,03,12.70
2015,06,22,04,04,12.70
2015,06,22,04,05,12.70
2015,06,22,04,06,12.70
2015,06,22,04,07,12.70
2015,06,22,04,08,12.70
2015,06,22,04,09,12.70
2015,06,22,04,10,12.70
2015,06,22,04,11,12.70
2015,06,22,04,12,12.70
2015,06,22,04,13,12.60
2015,06,22,04,14,12.60
2015,06,22,04,15,12.60
2015,06,22,04,16,12.60
2015,06,22,04,17,12.70
2015,06,22,04,18,12.70
2015,06,22,04,19,12.60
2015,06,22,04,20,12.60
2015,06,22,04,21,12.60
2015,06,22,04,22,12.60
2015,06,22,04,23,12.60
2015,06,22,04,24,12.60
2015,06,22,04,25,12.60
2015,06,22,04,26,12.50
2015,06,22,04,27,12.50
2015,06,22,04,28,12.50
2015,06,22,04,29,12.50
2015,06,22,04,30,12.40
2015,06,22,04,31,12.40
2015,06,22,04,32,12.40
2015,06,22,04,33,12.40
2015,06,22,04,34,12.40
2015,06,22,04,35,12.40
2015,06,22,04,36,12.30
2015,06,22,04,37,12.30
2015,06,22,04,38,12.30
2015,06,22,04,39,12.30
2015,06,22,04,40,12.30
2015,06,22,04,41,12.20
2015,06,22,04,42,12.20
2015,06,22,04,43,12.20
2015,06,22,04,44,12.20
2015,06,22,04,45,12.20
2015,06,22,04,46,12.10
2015,06,22,04,47,12.10
2015,06,22,04,48,12.10
2015,06,22,04,49,12.10
2015,06,22,04,50,12.10
2015,06,22,04,51,12.10
2015,06,22,04,52,12.10
2015,06,22,04,53,12.10
2015,06,22,04,54,12.10
2015,06,22,04,55,12.10
2015,06,22,04,56,12.10
2015,06,22,04,57,12.10
2015,06,22,04,58,12.10
2015,06,22,04,59,12.00
2015,06,22,05,00,12.00
2015,06,22,05,01,12.00
2015,06,22,05,02,12.00
2015,06,22,05,03,12.00
2015,06,22,05,04,12.10
2015,06,22,05,05,12.10
2015,06,22,05,06,12.10
2015,06,22,05,07,12.20
2015,06,22,05,08,12.20
2015,06,22,05,09,12.20
2015,06,22,05,10,12.20
2015,06,22,05,11,12.20
2015,06,22,05,12,12.20
2015,06,22,05,13,12.20
2015,06,22,05,14,12.20
2015,06,22,05,15,12.10
2015,06,22,05,16,12.10
2015,06,22,05,17,12.00
2015,06,22,05,18,12.00
2015,06,22,05,19,11.90
2015,06,22,05,20,11.80
2015,06,22,05,21,11.70
2015,06,22,05,22,11.70
2015,06,22,05,23,11.60
2015,06,22,05,24,11.60
2015,06,22,05,25,11.60
2015,06,22,05,26,11.50
2015,06,22,05,27,11.50
2015,06,22,05,28,11.50
2015,06,22,05,29,11.40
2015,06,22,05,30,11.40
2015,06,22,05,31,11.40
2015,06,22,05,32,11.40
2015,06,22,05,33,11.40
2015,06,22,05,34,11.40
2015,06,22,05,35,11.40
2015,06,22,05,36,11.40
2015,06,22,05,37,11.40
2015,06,22,05,38,11.40
2015,06,22,05,39,11.40
2015,06,22,05,40,11.40
2015,06,22,05,41,11.40
2015,06,22,05,42,11.40
2015,06,22,05,43,11.40
2015,06,22,05,44,11.40
2015,06,22,05,45,11.40
2015,06,22,05,46,11.40
2015,06,22,05,47,11.40
2015,06,22,05,48,11.40
2015,06,22,05,49,11.50
2015,06,22,05,50,11.50
2015,06,22,05,51,11.50
2015,06,22,05,52,11.50
2015,06,22,05,53,11.50
2015,06,22,05,54,11.50
2015,06,22,05,55,11.50
2015,06,22,05,56,11.60
2015,06,22,05,57,11.60
2015,06,22,05,58,11.60
2015,06,22,05,59,11.60
2015,06,22,06,00,11.60
2015,06,22,06,01,11.60
2015,06,22,06,02,11.60
2015,06,22,06,03,11.50
2015,06,22,06,04,11.50
2015,06,22,06,05,11.50
2015,06,22,06,06,11.60
2015,06,22,06,07,11.60
2015,06,22,06,08,11.60
2015,06,22,06,09,11.60
2015,06,22,06,10,11.60
2015,06,22,06,11,11.60
2015,06,22,06,12,11.60
2015,06,22,06,13,11.70
2015,06,22,06,14,11.70
2015,06,22,06,15,11.70
2015,06,22,06,16,11.80
2015,06,22,06,17,11.80
2015,06,22,06,18,11.80
2015,06,22,06,19,11.90
2015,06,22,06,20,11.90
2015,06,22,06,21,12.00
2015,06,22,06,22,12.00
2015,06,22,06,23,12.10
2015,06,22,06,24,12.10
2015,06,22,06,25,12.20
2015,06,22,06,26,12.30
2015,06,22,06,27,12.40
2015,06,22,06,28,12.50
2015,06,22,06,29,12.60
2015,06,22,06,30,12.70
2015,06,22,06,31,12.80
2015,06,22,06,32,12.90
2015,06,22,06,33,12.90
2015,06,22,06,34,13.00
2015,06,22,06,35,13.00
2015,06,22,06,36,13.10
2015,06,22,06,37,13.10
2015,06,22,06,38,13.10
2015,06,22,06,39,13.10
2015,06,22,06,40,13.10
2015,06,22,06,41,13.10
2015,06,22,06,42,13.10
2015,06,22,06,43,13.20
2015,06,22,06,44,13.20
2015,06,22,06,45,13.30
2015,06,22,06,46,13.40
2015,06,22,06,47,13.50
2015,06,22,06,48,13.50
2015,06,22,06,49,13.60
2015,06,22,06,50,13.70
2015,06,22,06,51,13.80
2015,06,22,06,52,13.90
2015,06,22,06,53,14.00
2015,06,22,06,54,14.10
2015,06,22,06,55,14.20
2015,06,22,06,56,14.30
2015,06,22,06,57,14.40
2015,06,22,06,58,14.40
2015,06,22,06,59,14.50
2015,06,22,07,00,14.60
2015,06,22,07,01,14.60
2015,06,22,07,02,14.60
2015,06,22,07,03,14.70
2015,06,22,07,04,14.70
2015,06,22,07,05,14.80
2015,06,22,07,06,14.90
2015,06,22,07,07,15.00
2015,06,22,07,08,15.00
2015,06,22,07,09,15.00
2015,06,22,07,10,15.00
2015,06,22,07,11,15.00
2015,06,22,07,12,15.00
2015,06,22,07,13,15.00
2015,06,22,07,14,15.10
2015,06,22,07,15,15.20
2015,06,22,07,16,15.30
2015,06,22,07,17,15.30
2015,06,22,07,18,15.40
2015,06,22,07,19,15.40
2015,06,22,07,20,15.50
2015,06,22,07,21,15.60
2015,06,22,07,22,15.70
2015,06,22,07,23,15.70
2015,06,22,07,24,15.80
2015,06,22,07,25,15.80
2015,06,22,07,26,15.80
2015,06,22,07,27,15.90
2015,06,22,07,28,16.00
2015,06,22,07,29,16.00
2015,06,22,07,30,16.10
2015,06,22,07,31,16.20
2015,06,22,07,32,16.30
2015,06,22,07,33,16.40
2015,06,22,07,34,16.40
2015,06,22,07,35,16.50
2015,06,22,07,36,16.50
2015,06,22,07,37,16.60
2015,06,22,07,38,16.60
2015,06,22,07,39,16.70
2015,06,22,07,40,16.70
2015,06,22,07,41,16.80
2015,06,22,07,42,16.80
2015,06,22,07,43,16.90
2015,06,22,07,44,16.90
2015,06,22,07,45,16.90
2015,06,22,07,46,17.00
2015,06,22,07,47,17.00
2015,06,22,07,48,17.10
2015,06,22,07,49,17.10
2015,06,22,07,50,17.10
2015,06,22,07,51,17.20
2015,06,22,07,52,17.30
2015,06,22,07,53,17.40
2015,06,22,07,54,17.50
2015,06,22,07,55,17.60
2015,06,22,07,56,17.70
2015,06,22,07,57,17.80
2015,06,22,07,58,17.80
2015,06,22,07,59,17.90
2015,06,22,08,00,17.90
2015,06,22,08,01,18.00
2015,06,22,08,02,18.10
2015,06,22,08,03,18.10
2015,06,22,08,04,18.10
2015,06,22,08,05,18.00
2015,06,22,08,06,17.90
2015,06,22,08,07,17.90
2015,06,22,08,08,17.80
2015,06,22,08,09,17.80
2015,06,22,08,10,17.70
2015,06,22,08,11,17.70
2015,06,22,08,12,17.70
2015,06,22,08,13,17.70
2015,06,22,08,14,17.60
2015,06,22,08,15,17.50
2015,06,22,08,16,17.40
2015,06,22,08,17,17.30
2015,06,22,08,18,17.30
2015,06,22,08,19,17.30
2015,06,22,08,20,17.30
2015,06,22,08,21,17.30
2015,06,22,08,22,17.30
2015,06,22,08,23,17.30
2015,06,22,08,24,17.40
2015,06,22,08,25,17.40
2015,06,22,08,26,17.40
2015,06,22,08,27,17.40
2015,06,22,08,28,17.40
2015,06,22,08,29,17.50
2015,06,22,08,30,17.50
2015,06,22,08,31,17.60
2015,06,22,08,32,17.60
2015,06,22,08,33,17.60
2015,06,22,08,34,17.70
2015,06,22,08,35,17.70
2015,06,22,08,36,17.70
2015,06,22,08,37,17.70
2015,06,22,08,38,17.70
2015,06,22,08,39,17.60
2015,06,22,08,40,17.60
2015,06,22,08,41,17.60
2015,06,22,08,42,17.70
2015,06,22,08,43,17.70
2015,06,22,08,44,17.70
2015,06,22,08,45,17.80
2015,06,22,08,46,17.70
2015,06,22,08,47,17.70
2015,06,22,08,48,17.70
2015,06,22,08,49,17.70
2015,06,22,08,50,17.80
2015,06,22,08,51,17.80
2015,06,22,08,52,17.90
2015,06,22,08,53,18.00
2015,06,22,08,54,18.10
2015,06,22,08,55,18.20
2015,06,22,08,56,18.20
2015,06,22,08,57,18.30
2015,06,22,08,58,18.40
2015,06,22,08,59,18.40
2015,06,22,09,00,18.50
2015,06,22,09,01,18.50
2015,06,22,09,02,18.60
2015,06,22,09,03,18.60
2015,06,22,09,04,18.70
2015,06,22,09,05,18.80
2015,06,22,09,06,18.80
2015,06,22,09,07,18.90
2015,06,22,09,08,18.90
2015,06,22,09,09,18.90
2015,06,22,09,10,18.90
2015,06,22,09,11,18.80
2015,06,22,09,12,18.70
2015,06,22,09,13,18.70
2015,06,22,09,14,18.80
2015,06,22,09,15,18.90
2015,06,22,09,16,18.90
2015,06,22,09,17,19.10
2015,06,22,09,18,19.20
2015,06,22,09,19,19.30
2015,06,22,09,20,19.50
2015,06,22,09,21,19.60
2015,06,22,09,22,19.70
2015,06,22,09,23,19.80
2015,06,22,09,24,19.90
2015,06,22,09,25,20.00
2015,06,22,09,26,20.00
2015,06,22,09,27,20.00
2015,06,22,09,28,19.90
2015,06,22,09,29,19.70
2015,06,22,09,30,19.70
2015,06,22,09,31,19.70
2015,06,22,09,32,19.70
2015,06,22,09,33,19.80
2015,06,22,09,34,19.90
2015,06,22,09,35,19.90
2015,06,22,09,36,20.00
2015,06,22,09,37,20.00
2015,06,22,09,38,20.10
2015,06,22,09,39,20.10
2015,06,22,09,40,20.20
2015,06,22,09,41,20.20
2015,06,22,09,42,20.20
2015,06,22,09,43,20.20
2015,06,22,09,44,20.20
2015,06,22,09,45,20.20
2015,06,22,09,46,20.20
2015,06,22,09,47,20.20
2015,06,22,09,48,20.20
2015,06,22,09,49,20.30
2015,06,22,09,50,20.30
2015,06,22,09,51,20.30
2015,06,22,09,52,20.20
2015,06,22,09,53,20.20
2015,06,22,09,54,20.20
2015,06,22,09,55,20.30
2015,06,22,09,56,20.40
2015,06,22,09,57,20.50
2015,06,22,09,58,20.60
2015,06,22,09,59,20.50
2015,06,22,10,00,20.40
2015,06,22,10,01,20.40
2015,06,22,10,02,20.30
2015,06,22,10,03,20.20
2015,06,22,10,04,20.00
2015,06,22,10,05,19.80
2015,06,22,10,06,19.60
2015,06,22,10,07,19.40
2015,06,22,10,08,19.30
2015,06,22,10,09,19.20
2015,06,22,10,10,19.20
2015,06,22,10,11,19.20
2015,06,22,10,12,19.30
2015,06,22,10,13,19.30
2015,06,22,10,14,19.40
2015,06,22,10,15,19.50
2015,06,22,10,16,19.60
2015,06,22,10,17,19.70
2015,06,22,10,18,19.70
2015,06,22,10,19,19.70
2015,06,22,10,20,19.70
2015,06,22,10,21,19.70
2015,06,22,10,22,19.80
2015,06,22,10,23,19.80
2015,06,22,10,24,19.90
2015,06,22,10,25,20.00
2015,06,22,10,26,20.10
2015,06,22,10,27,20.10
2015,06,22,10,28,20.20
2015,06,22,10,29,20.20
2015,06,22,10,30,20.30
2015,06,22,10,31,20.30
2015,06,22,10,32,20.40
2015,06,22,10,33,20.40
2015,06,22,10,34,20.40
2015,06,22,10,35,20.40
2015,06,22,10,36,20.40
2015,06,22,10,37,20.40
2015,06,22,10,38,20.30
2015,06,22,10,39,20.30
2015,06,22,10,40,20.30
2015,06,22,10,41,20.20
2015,06,22,10,42,20.30
2015,06,22,10,43,20.20
2015,06,22,10,44,20.20
2015,06,22,10,45,20.30
2015,06,22,10,46,20.30
2015,06,22,10,47,20.30
2015,06,22,10,48,20.40
2015,06,22,10,49,20.50
2015,06,22,10,50,20.50
2015,06,22,10,51,20.50
2015,06,22,10,52,20.60
2015,06,22,10,53,20.60
2015,06,22,10,54,20.70
2015,06,22,10,55,20.70
2015,06,22,10,56,20.70
2015,06,22,10,57,20.60
2015,06,22,10,58,20.60
2015,06,22,10,59,20.60
2015,06,22,11,00,20.60
2015,06,22,11,01,20.70
2015,06,22,11,02,20.80
2015,06,22,11,03,20.80
2015,06,22,11,04,20.80
2015,06,22,11,05,20.80
2015,06,22,11,06,20.90
2015,06,22,11,07,21.00
2015,06,22,11,08,21.00
2015,06,22,11,09,21.00
2015,06,22,11,10,21.00
2015,06,22,11,11,21.10
2015,06,22,11,12,21.10
2015,06,22,11,13,21.30
2015,06,22,11,14,21.40
2015,06,22,11,15,21.50
2015,06,22,11,16,21.60
2015,06,22,11,17,21.80
2015,06,22,11,18,21.80
2015,06,22,11,19,21.90
2015,06,22,11,20,21.90
2015,06,22,11,21,21.90
2015,06,22,11,22,21.90
2015,06,22,11,23,21.90
2015,06,22,11,24,22.00
2015,06,22,11,25,22.10
2015,06,22,11,26,22.10
2015,06,22,11,27,22.10
2015,06,22,11,28,22.10
2015,06,22,11,29,22.10
2015,06,22,11,30,22.10
2015,06,22,11,31,22.10
2015,06,22,11,32,22.00
2015,06,22,11,33,22.00
2015,06,22,11,34,22.00
2015,06,22,11,35,22.00
2015,06,22,11,36,22.00
2015,06,22,11,37,22.10
2015,06,22,11,38,22.20
2015,06,22,11,39,22.30
2015,06,22,11,40,22.40
2015,06,22,11,41,22.50
2015,06,22,11,42,22.60
2015,06,22,11,43,22.60
2015,06,22,11,44,22.70
2015,06,22,11,45,22.70
2015,06,22,11,46,22.70
2015,06,22,11,47,22.60
2015,06,22,11,48,22.60
2015,06,22,11,49,22.60
2015,06,22,11,50,22.60
2015,06,22,11,51,22.60
2015,06,22,11,52,22.50
2015,06,22,11,53,22.50
2015,06,22,11,54,22.50
2015,06,22,11,55,22.60
2015,06,22,11,56,22.50
2015,06,22,11,57,22.50
2015,06,22,11,58,22.60
2015,06,22,11,59,22.50
2015,06,22,12,00,22.50
2015,06,22,12,01,22.60
2015,06,22,12,02,22.60
2015,06,22,12,03,22.60
2015,06,22,12,04,22.60
2015,06,22,12,05,22.60
2015,06,22,12,06,22.50
2015,06,22,12,07,22.40
2015,06,22,12,08,22.40
2015,06,22,12,09,22.40
2015,06,22,12,10,22.40
2015,06,22,12,11,22.60
2015,06,22,12,12,22.70
2015,06,22,12,13,22.80
2015,06,22,12,14,23.00
2015,06,22,12,15,23.00
2015,06,22,12,16,23.00
2015,06,22,12,17,23.10
2015,06,22,12,18,23.20
2015,06,22,12,19,23.40
2015,06,22,12,20,23.50
2015,06,22,12,21,23.60
2015,06,22,12,22,23.60
2015,06,22,12,23,23.60
2015,06,22,12,24,23.60
2015,06,22,12,25,23.70
2015,06,22,12,26,23.70
2015,06,22,12,27,23.70
2015,06,22,12,28,23.60
2015,06,22,12,29,23.40
2015,06,22,12,30,23.30
2015,06,22,12,31,23.10
2015,06,22,12,32,22.90
2015,06,22,12,33,22.80
2015,06,22,12,34,22.80
2015,06,22,12,35,22.90
2015,06,22,12,36,22.90
2015,06,22,12,37,23.00
2015,06,22,12,38,23.10
2015,06,22,12,39,23.30
2015,06,22,12,40,23.40
2015,06,22,12,41,23.50
2015,06,22,12,42,23.70
2015,06,22,12,43,23.70
2015,06,22,12,44,23.70
2015,06,22,12,45,23.60
2015,06,22,12,46,23.60
2015,06,22,12,47,23.60
2015,06,22,12,48,23.60
2015,06,22,12,49,23.60
2015,06,22,12,50,23.60
2015,06,22,12,51,23.60
2015,06,22,12,52,23.70
2015,06,22,12,53,23.70
2015,06,22,12,54,23.80
2015,06,22,12,55,23.80
2015,06,22,12,56,23.80
2015,06,22,12,57,23.70
2015,06,22,12,58,23.60
2015,06,22,12,59,23.50
2015,06,22,13,00,23.20
2015,06,22,13,01,23.10
2015,06,22,13,02,22.90
2015,06,22,13,03,22.60
2015,06,22,13,04,22.50
2015,06,22,13,05,22.50
2015,06,22,13,06,22.40
2015,06,22,13,07,22.40
2015,06,22,13,08,22.30
2015,06,22,13,09,22.20
2015,06,22,13,10,22.20
2015,06,22,13,11,22.10
2015,06,22,13,12,22.00
2015,06,22,13,13,21.90
2015,06,22,13,14,21.90
2015,06,22,13,15,21.90
2015,06,22,13,16,22.00
2015,06,22,13,17,22.00
2015,06,22,13,18,22.10
2015,06,22,13,19,22.10
2015,06,22,13,20,22.20
2015,06,22,13,21,22.30
2015,06,22,13,22,22.30
2015,06,22,13,23,22.30
2015,06,22,13,24,22.30
2015,06,22,13,25,22.30
2015,06,22,13,26,22.20
2015,06,22,13,27,22.20
2015,06,22,13,28,22.20
2015,06,22,13,29,22.30
2015,06,22,13,30,22.40
2015,06,22,13,31,22.30
2015,06,22,13,32,22.20
2015,06,22,13,33,22.00
2015,06,22,13,34,21.80
2015,06,22,13,35,21.70
2015,06,22,13,36,21.70
2015,06,22,13,37,21.60
2015,06,22,13,38,21.60
2015,06,22,13,39,21.60
2015,06,22,13,40,21.60
2015,06,22,13,41,21.60
2015,06,22,13,42,21.60
2015,06,22,13,43,21.60
2015,06,22,13,44,21.70
2015,06,22,13,45,21.70
2015,06,22,13,46,21.70
2015,06,22,13,47,21.80
2015,06,22,13,48,21.70
2015,06,22,13,49,21.60
2015,06,22,13,50,21.60
2015,06,22,13,51,21.60
2015,06,22,13,52,21.60
2015,06,22,13,53,21.60
2015,06,22,13,54,21.60
2015,06,22,13,55,21.60
2015,06,22,13,56,21.70
2015,06,22,13,57,21.70
2015,06,22,13,58,21.70
2015,06,22,13,59,21.70
2015,06,22,14,00,21.60
2015,06,22,14,01,21.50
2015,06,22,14,02,21.40
2015,06,22,14,03,21.40
2015,06,22,14,04,21.50
2015,06,22,14,05,21.50
2015,06,22,14,06,21.50
2015,06,22,14,07,21.60
2015,06,22,14,08,21.80
2015,06,22,14,09,21.90
2015,06,22,14,10,22.00
2015,06,22,14,11,22.10
2015,06,22,14,12,22.10
2015,06,22,14,13,22.00
2015,06,22,14,14,21.90
2015,06,22,14,15,22.00
2015,06,22,14,16,22.00
2015,06,22,14,17,22.10
2015,06,22,14,18,22.10
2015,06,22,14,19,22.20
2015,06,22,14,20,22.20
2015,06,22,14,21,22.30
2015,06,22,14,22,22.30
2015,06,22,14,23,22.30
2015,06,22,14,24,22.20
2015,06,22,14,25,22.10
2015,06,22,14,26,22.10
2015,06,22,14,27,22.00
2015,06,22,14,28,22.00
2015,06,22,14,29,22.00
2015,06,22,14,30,21.90
2015,06,22,14,31,21.80
2015,06,22,14,32,21.90
2015,06,22,14,33,21.90
2015,06,22,14,34,22.10
2015,06,22,14,35,22.10
2015,06,22,14,36,22.20
2015,06,22,14,37,22.20
2015,06,22,14,38,22.20
2015,06,22,14,39,22.10
2015,06,22,14,40,22.00
2015,06,22,14,41,21.90
2015,06,22,14,42,21.80
2015,06,22,14,43,21.80
2015,06,22,14,44,21.80
2015,06,22,14,45,21.80
2015,06,22,14,46,21.90
2015,06,22,14,47,22.00
2015,06,22,14,48,22.10
2015,06,22,14,49,22.20
2015,06,22,14,50,22.10
2015,06,22,14,51,22.20
2015,06,22,14,52,22.20
2015,06,22,14,53,22.20
2015,06,22,14,54,22.30
2015,06,22,14,55,22.30
2015,06,22,14,56,22.30
2015,06,22,14,57,22.30
2015,06,22,14,58,22.30
2015,06,22,14,59,22.30
2015,06,22,15,00,22.30
2015,06,22,15,01,22.40
2015,06,22,15,02,22.40
2015,06,22,15,03,22.40
2015,06,22,15,04,22.40
2015,06,22,15,05,22.40
2015,06,22,15,06,22.40
2015,06,22,15,07,22.40
2015,06,22,15,08,22.40
2015,06,22,15,09,22.40
2015,06,22,15,10,22.40
2015,06,22,15,11,22.50
2015,06,22,15,12,22.50
2015,06,22,15,13,22.70
2015,06,22,15,14,22.70
2015,06,22,15,15,22.80
2015,06,22,15,16,22.80
2015,06,22,15,17,22.80
2015,06,22,15,18,22.80
2015,06,22,15,19,22.90
2015,06,22,15,20,22.90
2015,06,22,15,21,22.90
2015,06,22,15,22,22.90
2015,06,22,15,23,23.00
2015,06,22,15,24,23.10
2015,06,22,15,25,23.20
2015,06,22,15,26,23.20
2015,06,22,15,27,23.20
2015,06,22,15,28,23.20
2015,06,22,15,29,23.20
2015,06,22,15,30,23.30
2015,06,22,15,31,23.20
2015,06,22,15,32,23.20
2015,06,22,15,33,23.20
2015,06,22,15,34,23.20
2015,06,22,15,35,23.20
2015,06,22,15,36,23.20
2015,06,22,15,37,23.10
2015,06,22,15,38,23.10
2015,06,22,15,39,23.10
2015,06,22,15,40,23.10
2015,06,22,15,41,23.20
2015,06,22,15,42,23.20
2015,06,22,15,43,23.20
2015,06,22,15,44,23.30
2015,06,22,15,45,23.40
2015,06,22,15,46,23.40
2015,06,22,15,47,23.30
2015,06,22,15,48,23.30
2015,06,22,15,49,23.20
2015,06,22,15,50,23.10
2015,06,22,15,51,23.10
2015,06,22,15,52,23.00
2015,06,22,15,53,22.90
2015,06,22,15,54,23.00
2015,06,22,15,55,23.10
2015,06,22,15,56,23.10
2015,06,22,15,57,23.20
2015,06,22,15,58,23.20
2015,06,22,15,59,23.20
2015,06,22,16,00,23.20
2015,06,22,16,01,23.20
2015,06,22,16,02,23.20
2015,06,22,16,03,23.30
2015,06,22,16,04,23.40
2015,06,22,16,05,23.50
2015,06,22,16,06,23.50
2015,06,22,16,07,23.50
2015,06,22,16,08,23.40
2015,06,22,16,09,23.30
2015,06,22,16,10,23.20
2015,06,22,16,11,23.20
2015,06,22,16,12,23.20
2015,06,22,16,13,23.20
2015,06,22,16,14,23.20
2015,06,22,16,15,23.20
2015,06,22,16,16,23.20
2015,06,22,16,17,23.20
2015,06,22,16,18,23.20
2015,06,22,16,19,23.30
2015,06,22,16,20,23.30
2015,06,22,16,21,23.30
2015,06,22,16,22,23.30
2015,06,22,16,23,23.40
2015,06,22,16,24,23.40
2015,06,22,16,25,23.30
2015,06,22,16,26,23.40
2015,06,22,16,27,23.40
2015,06,22,16,28,23.40
2015,06,22,16,29,23.40
2015,06,22,16,30,23.40
2015,06,22,16,31,23.50
2015,06,22,16,32,23.50
2015,06,22,16,33,23.50
2015,06,22,16,34,23.50
2015,06,22,16,35,23.50
2015,06,22,16,36,23.40
2015,06,22,16,37,23.40
2015,06,22,16,38,23.40
2015,06,22,16,39,23.40
2015,06,22,16,40,23.40
2015,06,22,16,41,23.40
2015,06,22,16,42,23.50
2015,06,22,16,43,23.50
2015,06,22,16,44,23.50
2015,06,22,16,45,23.50
2015,06,22,16,46,23.60
2015,06,22,16,47,23.60
2015,06,22,16,48,23.60
2015,06,22,16,49,23.60
2015,06,22,16,50,23.70
2015,06,22,16,51,23.80
2015,06,22,16,52,23.80
2015,06,22,16,53,24.00
2015,06,22,16,54,24.00
2015,06,22,16,55,24.00
2015,06,22,16,56,24.00
2015,06,22,16,57,24.00
2015,06,22,16,58,24.00
2015,06,22,16,59,24.10
2015,06,22,17,00,24.10
2015,06,22,17,01,24.20
2015,06,22,17,02,24.20
2015,06,22,17,03,24.30
2015,06,22,17,04,24.30
2015,06,22,17,05,24.40
2015,06,22,17,06,24.40
2015,06,22,17,07,24.50
2015,06,22,17,08,24.60
2015,06,22,17,09,24.70
2015,06,22,17,10,24.70
2015,06,22,17,11,24.70
2015,06,22,17,12,24.70
2015,06,22,17,13,24.80
2015,06,22,17,14,24.80
2015,06,22,17,15,24.80
2015,06,22,17,16,24.70
2015,06,22,17,17,24.70
2015,06,22,17,18,24.70
2015,06,22,17,19,24.60